STARLINK-35593, 66107

Orbit data source: Space-Track

STARLINK-35593, 66107 is a payload satellite owned by SpaceX/Seattle (US) in LEO that was launched on Sun, 19 Oct 2025 UTC via an FALCON 9 launch vehicle from the Air Force Western Test Range (AFWTR). Payload-class satellites include a variety of spacecraft equipped with specific instruments for various scientific and technological missions. These include communications satellites like Starlink; space stations such as the ISS; scientific satellites like the Hubble; Earth observation satellites from companies like Planet Labs, Umbra, and HawkEye 360; GPS; miniature CubeSats for education and research; and military/defense satellites.

Loading next visibility...
Identifier
66107, 2025-236X
Orbit
LEO
Country
Flag of USUS
Related business
Manufacturer
SpaceX/Seattle
Mission
Operational Commercial Communications
Bus & Motor
STARLINK V2MO, Unknown motor
Mass
575 kg wet, ~530 kg dry
Launch date (UTC)
2025-10-19 (6 months ago)
Launch vehicle
FALCON 9
Launch site
Air Force Western Test Range (AFWTR)
Object type
Payload
Rocket body
Debris
Shape & HBR
Box + 2 Pan, 17.7 m
Radar Cross Section
36.964 m²

Expand to show TLE details & history
Last TLE update: 9 hours ago

TLE from 9 hours ago
0 STARLINK-35593
1 66107U 25236X   26095.39671050  .00030470  00000-0  10377-2 0  9995
2 66107  53.1617 339.8126 0001062  96.5313 263.5809 15.30167829 27030
Epoch: 2026-04-05T09:31Z
TLE epoch observation values (Epoch: 2026-04-05T09:31:15.787Z)
Latitude
0.00002°
Longitude
3.29411°
Altitude
476.292 km
Speed
7.629 km/s
True Right ascension
22h 39m 15s
True Declination
0° 00' 00"
Sunlit
Object was in daylight at epoch
Visualization orbit readout
Latitude
Unknown
Longitude
Unknown
Altitude
Unknown
Speed
Unknown
Apparent Right ascension
Unknown
Apparent Declination
Unknown
Sunlit
N/A
Visualization observer readout
Local Sidereal Time
00:10:31
Azimuth
Unknown
Elevation
Unknown
Doppler factor
Unknown
Orbital elements
Apogee altitude
476.295 km
Perigee altitude
474.839 km
Semi-major axis
6,853.704 km
Eccentricity
0.00011
Inclination
53.1617°
RAAN
339.8126°
Arg. of periapsis
96.5313°
True anomaly
263.56881°
Mean anomaly
263.5809°
Eccentric anomaly
263.57485°
Mean motion
3.82521 °/min
Orbital period
94.11 mins
BSTAR
0.0010377
Loading maneuver chart data...
Computing Atmospheric mass density...
Loading historical data...
Loading historical data...
Loading historical data...
Loading historical data...
Loading historical data...
Loading historical data...
Loading historical data...

Documentation

Showing up to 5 results
|